Location: ???? ??
(36.0534°N, 43.5630°E)
Time: 10:56:52
(UTC+00:00)

SL-16 R/B - Pass Details

Date: 18 September 2019
Orbit: 840 x 849 km, 71.0° (Epoch: 21 October)

Event Time Altitude Azimuth Distance (km) Brightness Sun altitude
Rises 18:33:50 0° 334° (NNW) 3,412 6.1 -39.1°
Reaches altitude 10° 18:36:18 10° 331° (NNW) 2,474 5.2 -39.5°
Enters shadow 18:38:29 24° 325° (NW) 1,689 4.2 -39.9°
